Погода в Сухиничи

Погода в Сухиничи : погода сейчас, прогноз погоды и архив. Всё, что Вы хотите узнать о погоде в Сухиничи!

Хотите узнать прогноз погоды в Сухиничи? Тогда Вам сюда: Погода в Сухиничи

Поиск расширенной информации на нашем сайте:

Другие новости

Новости СМИ2

Главная страница сайта

Новости сайта

03.07.2017

Напоминаем, что на нашем специализированном сайте Метеоцентр.Азия вы можете получить высокодетализированные автоматические прогнозы погоды по пунктам России, СНГ и мира в авиационном формате (включающие направление и скорость ветра, видимость, явления погоды, количество и форму облачности, нижнюю и верхнюю границу облачности).


Погода в Сухиничи - сегодня

Время (UTC), дата Ветер
(°,м/с) 
Видим.   Явления Облачность Т
(°С)
Тd
(°С)
f(%) Тe
(°С)
Pmin
(гПа)
dP
(гПа)
Po
(мм)
O2
(г/м3)
Тmin Tmax R s Состояние
почвы
00 15.04.18 230 (ЮЗ) 26000 м    ясно 
+3.9 -3.6 58 +5  1028.8  -0.3  749  298           
03 15.04.18 200 (Ю) 26000 м    ясно 
+1.6 -3.3 70 +2  1028  -1  749  300  +0.7         
09 15.04.18 240 (ЮЗ) 40000 м    4/3 2000 м средняя, верхняя 
[Ac trans|Ci fib]
+14.7 -2.7 30 +15  1025  -1.2  747  286           
12 15.04.18 260 (З) 40000 м    8/5 2000 м средняя, верхняя 
[Ac As|Ci]
+15.8 -2.3 29 +16  1023.1  -1.7  746  284           
15 15.04.18 260 (З) 40000 м    9/8 600 м средняя 
[Sc|Ac trans]
+13.8 -1.7 34 +14  1022.1  -1.2  745  286           
21 15.04.18 250 (З) 29000 м    ясно 
+6.9 +1.7 69 +8  1021.7  -0.6  744  292           
00 16.04.18 250 (З) 23000 м    ясно 
+6.5 +3.1 79 +6  1021.4  -0.3  744  292           
06 16.04.18 260 (З) 25000 м    8/6 2000 м средняя, верхняя 
[Ac As|Ci fib]
+11.2 +5.7 69 +11  1020.9  0.1  744  287  +4.2        влажная 
09 16.04.18 260 (З) 40000 м    8/0 верхняя 
[Ci fib]
+17.6 +7 50 +18  1019.9  -0.4  744  280           
12 16.04.18 240 (ЮЗ) 40000 м    8/3 1000 м верхняя 
[Cu med, cong|Ci fib]
+20.2 +4 34 +20  1018.4  -1.3  743  278           
15 16.04.18 260 (З) 40000 м    8/3 600 м средняя 
[Sc|Ac As]
+19.1 +4 37 +20  1017.3  -1.1  742  279           
00 17.04.18 230 (ЮЗ) 20000 м    8/0 верхняя 
[Ci fib]
+10.3 +5 70 +11  1017.5  0.1  742  287           
09 17.04.18 170 (Ю) 30000 м    9/8 600 м кучево-дожд., средняя 
[Cb cap|Ac As]
+17.9 +4.5 41 +19  1016.6  0.1  741  280           
12 17.04.18 230 (ЮЗ) 40000 м    10/5 1000 м средняя 
[Sc|Ac As]
+20.7 +6.5 40 +21  1015.5  -0.8  741  276           
15 17.04.18 220 (ЮЗ) 40000 м    9/8 2000 м средняя, верхняя 
[Ac As|Ci sp]
+19.1 +5.1 40 +21  1014.4  -1.1  740  278           
21 17.04.18 тихо ()   20000 м  в посл. час ливневой дождь  9/9 600 м кучево-дожд. 
[Cb cap]
+11.4 +6.7 73 +11  1014.2  -0.7  739  285           
03 18.04.18 240 (ЮЗ) 5000 м  ливневой дождь  10/10 300 м кучево-дожд. 
[Cb cap]
+9.4 +8.6 95 +10  1011.1  -1.2  737  286  +9.4       
06 18.04.18 300 (СЗ) 8000 м  слаб. ливневой дождь  9/9 300 м кучево-дожд. 
[Cb cap]
+9.5 +8.1 91 +8  1011.4  0.2  737  286  +9.4      мокрая 
15 18.04.18 320 (СЗ) 30000 м    9/9 600 м 
[Sc]
+9.1 +2.2 62 +9  1012.1  -0.6  738  287         
21 18.04.18 300 (СЗ) 20000 м    9/9 2000 м средняя 
[Ac As]
+6.9 +3.7 80 +6  1009.7  -2.2  736  289           
03 19.04.18 340 (С) 10 км    9/9 600 м 
[Sc]
+5.6 +4.2 91 +4  1006.3  -1.5  733  289  +5.4    0.1     
06 19.04.18 330 (СЗ) 10 км  слаб. ливневой дождь  9/9 600 м кучево-дожд. 
[Cb cap]
+6.1 +5.1 93 +5  1006  -0.3  733  288  +5.4    0.5    мокрая 
09 19.04.18 340 (С) 15000 м  в посл. час ливневой дождь  9/9 600 м кучево-дожд. 
[Cb cap]
+8 +5.7 85 +7  1006  0.1  733  286           
15 19.04.18 350 (С) 40000 м    9/5 600 м средняя, верхняя 
[Sc|Ac trans|Ci fib]
+12.5 +2.1 49 +12  1006.4  0.6  734  282      0.8     
21 19.04.18 340 (С) 25000 м    ясно 
+8.2 +2.8 69 +7  1011.3  1.5  737  288           
Время (UTC), дата Ветер
(°,м/с) 
Видим.   Явления Облачность Т
(°С)
Тd
(°С)
f(%) Тe
(°С)
Pmin
(гПа)
dP
(гПа)
Po
(мм)
O2
(г/м3)
Тmin Tmax R s Состояние
почвы

Для получения пояснительной информации подведите курсор к названию столбца.

ПОГОДА в Сухиничи - архив

Всё, что Вы хотите узнать о погоде в Сухиничи - удобно и подробно!

Выберите нужную дату (начиная с 1 января 2015* года) и нажмите кнопку "Найти".
Будут отображены архивные сводки погоды по пункту Сухиничи, начиная с указанной даты.


Отображать данные в формате CSV (для использования в таблицах Excel)


Внимание! Наш архив погоды предназначен исключительно для личного некоммерческого использования в познавательных целях. Если Вам необходимы официальные справки о состоянии погоды (для производственных, юридических, коммерческих и т.п. целей), обращайтесь в органы Росгидромета.

*Примечание: данная дата относится к архиву по метеостанциям СССР (Россия, СНГ, Балтия).
Архив по метеостанциям Зарубежной Европы и Азии (кроме Китая) хранится 10 дней, по другим регионам земного шара (Китай, Африка, Америка, Австралия, Океания) - 1 день.

Сухиничи - район местоположения метеостанции


Название, широта, долгота, высота метеостанции:
Сухиничи 54.1°ш. 35.3°д. 238 м над ур. моря [Российская Федерация]

Дополнительная информация

В oтличие oт бoльшинства пoгoдных сайтoв мы публикуем пoдрoбную метеoинфoрмацию в детальнoм прoфессиoнальнoм фoрмате.

Характеристики температуры и влажнoсти вoздуха измеряются на высoте 2 м в тени вдали oт зданий и деревьев.
Скoрoсть ветра измеряется на высoте 10 м (на урoвне рoста челoвека скoрoсть ветра ниже в 1.5-2 раза). Если метеoстанция нахoдится в гoрoде или в лесу, тo скoрoсть ветра занижена на 2-4 м/с пo сравнению с oткрытым местoм. Скoрoсть ветра над акватoриями крупных рек и oзёр, а также на вершинах хoлмoв на 2-5 м/с выше, чем в oбычных услoвиях.
Атмoсфернoе давление в разных тoчках местнoсти мoжет значительнo oтличаться oт давления на метеoстанции, в зависимoсти oт услoвий рельефа (при пoдъёме на 10 м давление пoнижается примернo на 1 мм рт.ст.).